<?xml version="1.0" encoding="UTF-8" standalone="no" ?>
<gpx xmlns="http://www.topografix.com/GPX/1/1" xmlns:xsi="http://www.w3.org/2001/XMLSchema-instance" xsi:schemaLocation="http://www.topografix.com/GPX/1/1 http://www.topografix.com/GPX/1/1/gpx.xsd" version="1.1" creator="VisuGPX - https://www.visugpx.com">
  <metadata>
    <name>tour de bretagne</name>
    <desc><![CDATA[tracé 2008]]></desc>
  </metadata>
  <trk>
    <name><![CDATA[fusion]]></name>
    <trkseg>
      <trkpt lat="48.60358" lon="-2.30805">
        <ele>-1000</ele>
        <time>2007-05-30T14:08:43Z</time>
      </trkpt>
      <trkpt lat="48.60352" lon="-2.30774">
        <ele>-1000</ele>
        <time>2007-05-30T14:08:43Z</time>
      </trkpt>
      <trkpt lat="48.60323" lon="-2.30752">
        <ele>-1000</ele>
        <time>2007-05-30T14:08:43Z</time>
      </trkpt>
      <trkpt lat="48.60231" lon="-2.30719">
        <ele>-1000</ele>
        <time>2007-05-30T14:08:43Z</time>
      </trkpt>
      <trkpt lat="48.60187" lon="-2.30681">
        <ele>-1000</ele>
        <time>2007-05-30T14:08:43Z</time>
      </trkpt>
      <trkpt lat="48.6015" lon="-2.30624">
        <ele>-1000</ele>
        <time>2007-05-30T14:08:43Z</time>
      </trkpt>
      <trkpt lat="48.60107" lon="-2.30594">
        <ele>-1000</ele>
        <time>2007-05-30T14:08:43Z</time>
      </trkpt>
      <trkpt lat="48.59768" lon="-2.30549">
        <ele>-1000</ele>
        <time>2007-05-30T14:08:43Z</time>
      </trkpt>
      <trkpt lat="48.59763" lon="-2.30459">
        <ele>-1000</ele>
        <time>2007-05-30T14:08:43Z</time>
      </trkpt>
      <trkpt lat="48.59772" lon="-2.30373">
        <ele>-1000</ele>
        <time>2007-05-30T14:08:43Z</time>
      </trkpt>
      <trkpt lat="48.59795" lon="-2.30285">
        <ele>-1000</ele>
        <time>2007-05-30T14:08:43Z</time>
      </trkpt>
      <trkpt lat="48.59783" lon="-2.30241">
        <ele>-1000</ele>
        <time>2007-05-30T14:08:43Z</time>
      </trkpt>
      <trkpt lat="48.59733" lon="-2.30146">
        <ele>-1000</ele>
        <time>2007-05-30T14:08:43Z</time>
      </trkpt>
      <trkpt lat="48.59652" lon="-2.30042">
        <ele>-1000</ele>
        <time>2007-05-30T14:08:43Z</time>
      </trkpt>
      <trkpt lat="48.59619" lon="-2.29955">
        <ele>-1000</ele>
        <time>2007-05-30T14:08:43Z</time>
      </trkpt>
      <trkpt lat="48.59568" lon="-2.29858">
        <ele>-1000</ele>
        <time>2007-05-30T14:08:43Z</time>
      </trkpt>
      <trkpt lat="48.59541" lon="-2.29766">
        <ele>-1000</ele>
        <time>2007-05-30T14:08:43Z</time>
      </trkpt>
      <trkpt lat="48.59508" lon="-2.2972">
        <ele>-1000</ele>
        <time>2007-05-30T14:08:43Z</time>
      </trkpt>
      <trkpt lat="48.59465" lon="-2.29691">
        <ele>-1000</ele>
        <time>2007-05-30T14:08:43Z</time>
      </trkpt>
      <trkpt lat="48.59472" lon="-2.29654">
        <ele>-1000</ele>
        <time>2007-05-30T14:08:43Z</time>
      </trkpt>
      <trkpt lat="48.59425" lon="-2.29582">
        <ele>-1000</ele>
        <time>2007-05-30T14:08:43Z</time>
      </trkpt>
      <trkpt lat="48.59409" lon="-2.29465">
        <ele>-1000</ele>
        <time>2007-05-30T14:08:43Z</time>
      </trkpt>
      <trkpt lat="48.59307" lon="-2.29529">
        <ele>-1000</ele>
        <time>2007-05-30T14:08:43Z</time>
      </trkpt>
      <trkpt lat="48.59299" lon="-2.29523">
        <ele>-1000</ele>
        <time>2007-05-30T14:08:43Z</time>
      </trkpt>
      <trkpt lat="48.5923" lon="-2.2964">
        <ele>-1000</ele>
        <time>2007-05-30T14:08:43Z</time>
      </trkpt>
      <trkpt lat="48.58939" lon="-2.29965">
        <ele>-1000</ele>
        <time>2007-05-30T14:08:43Z</time>
      </trkpt>
      <trkpt lat="48.58825" lon="-2.29708">
        <ele>-1000</ele>
        <time>2007-05-30T14:08:43Z</time>
      </trkpt>
      <trkpt lat="48.58732" lon="-2.29572">
        <ele>-1000</ele>
        <time>2007-05-30T14:08:43Z</time>
      </trkpt>
      <trkpt lat="48.58569" lon="-2.2945">
        <ele>-1000</ele>
        <time>2007-05-30T14:08:43Z</time>
      </trkpt>
      <trkpt lat="48.58453" lon="-2.29274">
        <ele>-1000</ele>
        <time>2007-05-30T14:08:43Z</time>
      </trkpt>
      <trkpt lat="48.58469" lon="-2.29233">
        <ele>-1000</ele>
        <time>2007-05-30T14:08:43Z</time>
      </trkpt>
      <trkpt lat="48.58509" lon="-2.29187">
        <ele>-1000</ele>
        <time>2007-05-30T14:08:43Z</time>
      </trkpt>
      <trkpt lat="48.58536" lon="-2.29132">
        <ele>-1000</ele>
        <time>2007-05-30T14:08:43Z</time>
      </trkpt>
      <trkpt lat="48.58533" lon="-2.29065">
        <ele>-1000</ele>
        <time>2007-05-30T14:08:43Z</time>
      </trkpt>
      <trkpt lat="48.58543" lon="-2.29027">
        <ele>-1000</ele>
        <time>2007-05-30T14:08:43Z</time>
      </trkpt>
      <trkpt lat="48.5858" lon="-2.28987">
        <ele>-1000</ele>
        <time>2007-05-30T14:08:43Z</time>
      </trkpt>
      <trkpt lat="48.5859" lon="-2.28932">
        <ele>-1000</ele>
        <time>2007-05-30T14:08:43Z</time>
      </trkpt>
      <trkpt lat="48.58481" lon="-2.28823">
        <ele>-1000</ele>
        <time>2007-05-30T14:08:43Z</time>
      </trkpt>
      <trkpt lat="48.58437" lon="-2.28806">
        <ele>-1000</ele>
        <time>2007-05-30T14:08:43Z</time>
      </trkpt>
      <trkpt lat="48.58434" lon="-2.28778">
        <ele>-1000</ele>
        <time>2007-05-30T14:08:43Z</time>
      </trkpt>
      <trkpt lat="48.58402" lon="-2.28721">
        <ele>-1000</ele>
        <time>2007-05-30T14:08:43Z</time>
      </trkpt>
      <trkpt lat="48.58386" lon="-2.28706">
        <ele>-1000</ele>
        <time>2007-05-30T14:08:43Z</time>
      </trkpt>
      <trkpt lat="48.58356" lon="-2.28624">
        <ele>-1000</ele>
        <time>2007-05-30T14:08:43Z</time>
      </trkpt>
      <trkpt lat="48.58324" lon="-2.28488">
        <ele>-1000</ele>
        <time>2007-05-30T14:08:43Z</time>
      </trkpt>
      <trkpt lat="48.58294" lon="-2.2844">
        <ele>-1000</ele>
        <time>2007-05-30T14:08:43Z</time>
      </trkpt>
      <trkpt lat="48.58296" lon="-2.28408">
        <ele>-1000</ele>
        <time>2007-05-30T14:08:43Z</time>
      </trkpt>
      <trkpt lat="48.58254" lon="-2.28399">
        <ele>-1000</ele>
        <time>2007-05-30T14:08:43Z</time>
      </trkpt>
      <trkpt lat="48.58209" lon="-2.2833">
        <ele>-1000</ele>
        <time>2007-05-30T14:08:43Z</time>
      </trkpt>
      <trkpt lat="48.58182" lon="-2.28248">
        <ele>-1000</ele>
        <time>2007-05-30T14:08:43Z</time>
      </trkpt>
      <trkpt lat="48.58154" lon="-2.28209">
        <ele>-1000</ele>
        <time>2007-05-30T14:08:43Z</time>
      </trkpt>
      <trkpt lat="48.58115" lon="-2.28183">
        <ele>-1000</ele>
        <time>2007-05-30T14:08:43Z</time>
      </trkpt>
      <trkpt lat="48.58052" lon="-2.28085">
        <ele>-1000</ele>
        <time>2007-05-30T14:08:43Z</time>
      </trkpt>
      <trkpt lat="48.57951" lon="-2.27961">
        <ele>-1000</ele>
        <time>2007-05-30T14:08:43Z</time>
      </trkpt>
      <trkpt lat="48.57929" lon="-2.27941">
        <ele>-1000</ele>
        <time>2007-05-30T14:08:43Z</time>
      </trkpt>
      <trkpt lat="48.57899" lon="-2.2793">
        <ele>-1000</ele>
        <time>2007-05-30T14:08:43Z</time>
      </trkpt>
      <trkpt lat="48.57898" lon="-2.27873">
        <ele>-1000</ele>
        <time>2007-05-30T14:08:43Z</time>
      </trkpt>
      <trkpt lat="48.57876" lon="-2.27744">
        <ele>-1000</ele>
        <time>2007-05-30T14:08:43Z</time>
      </trkpt>
      <trkpt lat="48.57881" lon="-2.27686">
        <ele>-1000</ele>
        <time>2007-05-30T14:08:43Z</time>
      </trkpt>
      <trkpt lat="48.5791" lon="-2.27549">
        <ele>-1000</ele>
        <time>2007-05-30T14:08:43Z</time>
      </trkpt>
      <trkpt lat="48.57892" lon="-2.27518">
        <ele>-1000</ele>
        <time>2007-05-30T14:08:43Z</time>
      </trkpt>
      <trkpt lat="48.57859" lon="-2.27503">
        <ele>-1000</ele>
        <time>2007-05-30T14:08:43Z</time>
      </trkpt>
      <trkpt lat="48.57837" lon="-2.27465">
        <ele>-1000</ele>
        <time>2007-05-30T14:08:43Z</time>
      </trkpt>
      <trkpt lat="48.5776" lon="-2.2742">
        <ele>-1000</ele>
        <time>2007-05-30T14:08:43Z</time>
      </trkpt>
      <trkpt lat="48.5769" lon="-2.2722">
        <ele>-1000</ele>
        <time>2007-05-30T14:08:43Z</time>
      </trkpt>
      <trkpt lat="48.57651" lon="-2.27154">
        <ele>-1000</ele>
        <time>2007-05-30T14:08:43Z</time>
      </trkpt>
      <trkpt lat="48.57625" lon="-2.27048">
        <ele>-1000</ele>
        <time>2007-05-30T14:08:43Z</time>
      </trkpt>
      <trkpt lat="48.57584" lon="-2.26925">
        <ele>-1000</ele>
        <time>2007-05-30T14:08:43Z</time>
      </trkpt>
      <trkpt lat="48.57557" lon="-2.26877">
        <ele>-1000</ele>
        <time>2007-05-30T14:08:43Z</time>
      </trkpt>
      <trkpt lat="48.57515" lon="-2.26821">
        <ele>-1000</ele>
        <time>2007-05-30T14:08:43Z</time>
      </trkpt>
      <trkpt lat="48.57453" lon="-2.26618">
        <ele>-1000</ele>
        <time>2007-05-30T14:08:43Z</time>
      </trkpt>
      <trkpt lat="48.57436" lon="-2.26478">
        <ele>-1000</ele>
        <time>2007-05-30T14:08:43Z</time>
      </trkpt>
      <trkpt lat="48.57436" lon="-2.26382">
        <ele>-1000</ele>
        <time>2007-05-30T14:08:43Z</time>
      </trkpt>
      <trkpt lat="48.57442" lon="-2.26337">
        <ele>-1000</ele>
        <time>2007-05-30T14:08:43Z</time>
      </trkpt>
      <trkpt lat="48.57427" lon="-2.26192">
        <ele>-1000</ele>
        <time>2007-05-30T14:08:43Z</time>
      </trkpt>
      <trkpt lat="48.57386" lon="-2.26013">
        <ele>-1000</ele>
        <time>2007-05-30T14:08:43Z</time>
      </trkpt>
      <trkpt lat="48.57146" lon="-2.25502">
        <ele>-1000</ele>
        <time>2007-05-30T14:08:43Z</time>
      </trkpt>
      <trkpt lat="48.57025" lon="-2.25507">
        <ele>-1000</ele>
        <time>2007-05-30T14:08:43Z</time>
      </trkpt>
      <trkpt lat="48.56995" lon="-2.25489">
        <ele>-1000</ele>
        <time>2007-05-30T14:08:43Z</time>
      </trkpt>
      <trkpt lat="48.56955" lon="-2.25393">
        <ele>-1000</ele>
        <time>2007-05-30T14:08:43Z</time>
      </trkpt>
      <trkpt lat="48.56943" lon="-2.25303">
        <ele>-1000</ele>
        <time>2007-05-30T14:08:43Z</time>
      </trkpt>
      <trkpt lat="48.56965" lon="-2.25218">
        <ele>-1000</ele>
        <time>2007-05-30T14:08:43Z</time>
      </trkpt>
      <trkpt lat="48.57091" lon="-2.24945">
        <ele>-1000</ele>
        <time>2007-05-30T14:08:43Z</time>
      </trkpt>
      <trkpt lat="48.5709" lon="-2.24882">
        <ele>-1000</ele>
        <time>2007-05-30T14:08:43Z</time>
      </trkpt>
      <trkpt lat="48.57025" lon="-2.24736">
        <ele>-1000</ele>
        <time>2007-05-30T14:08:43Z</time>
      </trkpt>
      <trkpt lat="48.57016" lon="-2.24692">
        <ele>-1000</ele>
        <time>2007-05-30T14:08:43Z</time>
      </trkpt>
      <trkpt lat="48.57028" lon="-2.24647">
        <ele>-1000</ele>
        <time>2007-05-30T14:08:43Z</time>
      </trkpt>
      <trkpt lat="48.57196" lon="-2.24439">
        <ele>-1000</ele>
        <time>2007-05-30T14:08:43Z</time>
      </trkpt>
      <trkpt lat="48.57267" lon="-2.24377">
        <ele>-1000</ele>
        <time>2007-05-30T14:08:43Z</time>
      </trkpt>
      <trkpt lat="48.57322" lon="-2.2437">
        <ele>-1000</ele>
        <time>2007-05-30T14:08:43Z</time>
      </trkpt>
      <trkpt lat="48.57344" lon="-2.24354">
        <ele>-1000</ele>
        <time>2007-05-30T14:08:43Z</time>
      </trkpt>
      <trkpt lat="48.57354" lon="-2.24319">
        <ele>-1000</ele>
        <time>2007-05-30T14:08:43Z</time>
      </trkpt>
      <trkpt lat="48.57432" lon="-2.24266">
        <ele>-1000</ele>
        <time>2007-05-30T14:08:43Z</time>
      </trkpt>
      <trkpt lat="48.57463" lon="-2.24182">
        <ele>-1000</ele>
        <time>2007-05-30T14:08:43Z</time>
      </trkpt>
      <trkpt lat="48.57475" lon="-2.24088">
        <ele>-1000</ele>
        <time>2007-05-30T14:08:43Z</time>
      </trkpt>
      <trkpt lat="48.57452" lon="-2.23913">
        <ele>-1000</ele>
        <time>2007-05-30T14:08:43Z</time>
      </trkpt>
      <trkpt lat="48.57444" lon="-2.23933">
        <ele>-1000</ele>
        <time>2007-05-30T14:08:43Z</time>
      </trkpt>
      <trkpt lat="48.57376" lon="-2.23794">
        <ele>-1000</ele>
        <time>2007-05-30T14:08:43Z</time>
      </trkpt>
      <trkpt lat="48.57363" lon="-2.23734">
        <ele>-1000</ele>
        <time>2007-05-30T14:08:43Z</time>
      </trkpt>
      <trkpt lat="48.57373" lon="-2.23695">
        <ele>-1000</ele>
        <time>2007-05-30T14:08:43Z</time>
      </trkpt>
      <trkpt lat="48.57351" lon="-2.23672">
        <ele>-1000</ele>
        <time>2007-05-30T14:08:43Z</time>
      </trkpt>
      <trkpt lat="48.57315" lon="-2.23699">
        <ele>-1000</ele>
        <time>2007-05-30T14:08:43Z</time>
      </trkpt>
      <trkpt lat="48.56712" lon="-2.23638">
        <ele>-1000</ele>
        <time>2007-05-30T14:08:43Z</time>
      </trkpt>
      <trkpt lat="48.56807" lon="-2.2345">
        <ele>-1000</ele>
        <time>2007-05-30T14:08:43Z</time>
      </trkpt>
      <trkpt lat="48.56884" lon="-2.23257">
        <ele>-1000</ele>
        <time>2007-05-30T14:08:43Z</time>
      </trkpt>
      <trkpt lat="48.56895" lon="-2.23177">
        <ele>-1000</ele>
        <time>2007-05-30T14:08:43Z</time>
      </trkpt>
      <trkpt lat="48.56902" lon="-2.23123">
        <ele>-1000</ele>
        <time>2007-05-30T14:08:43Z</time>
      </trkpt>
      <trkpt lat="48.5687" lon="-2.23101">
        <ele>-1000</ele>
        <time>2007-05-30T14:08:43Z</time>
      </trkpt>
      <trkpt lat="48.56902" lon="-2.22845">
        <ele>-1000</ele>
        <time>2007-05-30T14:08:43Z</time>
      </trkpt>
      <trkpt lat="48.56934" lon="-2.2278">
        <ele>-1000</ele>
        <time>2007-05-30T14:08:43Z</time>
      </trkpt>
      <trkpt lat="48.56926" lon="-2.22706">
        <ele>-1000</ele>
        <time>2007-05-30T14:08:43Z</time>
      </trkpt>
      <trkpt lat="48.56954" lon="-2.22708">
        <ele>-1000</ele>
        <time>2007-05-30T14:08:43Z</time>
      </trkpt>
      <trkpt lat="48.56964" lon="-2.22752">
        <ele>-1000</ele>
        <time>2007-05-30T14:08:43Z</time>
      </trkpt>
      <trkpt lat="48.56989" lon="-2.22755">
        <ele>-1000</ele>
        <time>2007-05-30T14:08:43Z</time>
      </trkpt>
      <trkpt lat="48.56995" lon="-2.22611">
        <ele>-1000</ele>
        <time>2007-05-30T14:08:43Z</time>
      </trkpt>
      <trkpt lat="48.57061" lon="-2.22586">
        <ele>-1000</ele>
        <time>2007-05-30T14:08:43Z</time>
      </trkpt>
      <trkpt lat="48.57068" lon="-2.22525">
        <ele>-1000</ele>
        <time>2007-05-30T14:08:43Z</time>
      </trkpt>
      <trkpt lat="48.57078" lon="-2.22494">
        <ele>-1000</ele>
        <time>2007-05-30T14:08:43Z</time>
      </trkpt>
      <trkpt lat="48.57159" lon="-2.22474">
        <ele>-1000</ele>
        <time>2007-05-30T14:08:43Z</time>
      </trkpt>
      <trkpt lat="48.57175" lon="-2.22486">
        <ele>-1000</ele>
        <time>2007-05-30T14:08:43Z</time>
      </trkpt>
      <trkpt lat="48.57225" lon="-2.22393">
        <ele>-1000</ele>
        <time>2007-05-30T14:08:43Z</time>
      </trkpt>
      <trkpt lat="48.5724" lon="-2.22351">
        <ele>-1000</ele>
        <time>2007-05-30T14:08:43Z</time>
      </trkpt>
      <trkpt lat="48.5724" lon="-2.22309">
        <ele>-1000</ele>
        <time>2007-05-30T14:08:43Z</time>
      </trkpt>
      <trkpt lat="48.57217" lon="-2.22209">
        <ele>-1000</ele>
        <time>2007-05-30T14:08:43Z</time>
      </trkpt>
      <trkpt lat="48.57206" lon="-2.22148">
        <ele>-1000</ele>
        <time>2007-05-30T14:08:43Z</time>
      </trkpt>
      <trkpt lat="48.57209" lon="-2.22059">
        <ele>-1000</ele>
        <time>2007-05-30T14:08:43Z</time>
      </trkpt>
      <trkpt lat="48.57225" lon="-2.21995">
        <ele>-1000</ele>
        <time>2007-05-30T14:08:43Z</time>
      </trkpt>
      <trkpt lat="48.57259" lon="-2.21945">
        <ele>-1000</ele>
        <time>2007-05-30T14:08:43Z</time>
      </trkpt>
      <trkpt lat="48.57334" lon="-2.21868">
        <ele>-1000</ele>
        <time>2007-05-30T14:08:43Z</time>
      </trkpt>
      <trkpt lat="48.57369" lon="-2.2181">
        <ele>-1000</ele>
        <time>2007-05-30T14:08:43Z</time>
      </trkpt>
      <trkpt lat="48.57394" lon="-2.21725">
        <ele>-1000</ele>
        <time>2007-05-30T14:08:43Z</time>
      </trkpt>
      <trkpt lat="48.57418" lon="-2.21598">
        <ele>-1000</ele>
        <time>2007-05-30T14:08:43Z</time>
      </trkpt>
      <trkpt lat="48.57418" lon="-2.21553">
        <ele>-1000</ele>
        <time>2007-05-30T14:08:43Z</time>
      </trkpt>
      <trkpt lat="48.57399" lon="-2.21503">
        <ele>-1000</ele>
        <time>2007-05-30T14:08:43Z</time>
      </trkpt>
      <trkpt lat="48.57418" lon="-2.21429">
        <ele>-1000</ele>
        <time>2007-05-30T14:08:43Z</time>
      </trkpt>
      <trkpt lat="48.57145" lon="-2.21238">
        <ele>-1000</ele>
        <time>2007-05-30T14:08:43Z</time>
      </trkpt>
      <trkpt lat="48.57166" lon="-2.21208">
        <ele>-1000</ele>
        <time>2007-05-30T14:08:43Z</time>
      </trkpt>
      <trkpt lat="48.57179" lon="-2.21159">
        <ele>-1000</ele>
        <time>2007-05-30T14:08:43Z</time>
      </trkpt>
      <trkpt lat="48.57197" lon="-2.21134">
        <ele>-1000</ele>
        <time>2007-05-30T14:08:43Z</time>
      </trkpt>
      <trkpt lat="48.57257" lon="-2.21128">
        <ele>-1000</ele>
        <time>2007-05-30T14:08:43Z</time>
      </trkpt>
      <trkpt lat="48.57277" lon="-2.21093">
        <ele>-1000</ele>
        <time>2007-05-30T14:08:43Z</time>
      </trkpt>
      <trkpt lat="48.5728" lon="-2.21028">
        <ele>-1000</ele>
        <time>2007-05-30T14:08:43Z</time>
      </trkpt>
      <trkpt lat="48.5727" lon="-2.20846">
        <ele>-1000</ele>
        <time>2007-05-30T14:08:43Z</time>
      </trkpt>
      <trkpt lat="48.57241" lon="-2.20716">
        <ele>-1000</ele>
        <time>2007-05-30T14:08:43Z</time>
      </trkpt>
      <trkpt lat="48.57207" lon="-2.20625">
        <ele>-1000</ele>
        <time>2007-05-30T14:08:43Z</time>
      </trkpt>
      <trkpt lat="48.57202" lon="-2.2057">
        <ele>-1000</ele>
        <time>2007-05-30T14:08:43Z</time>
      </trkpt>
      <trkpt lat="48.57222" lon="-2.20505">
        <ele>-1000</ele>
        <time>2007-05-30T14:08:43Z</time>
      </trkpt>
      <trkpt lat="48.57221" lon="-2.20244">
        <ele>-1000</ele>
        <time>2007-05-30T14:08:43Z</time>
      </trkpt>
      <trkpt lat="48.57199" lon="-2.20042">
        <ele>-1000</ele>
        <time>2007-05-30T14:08:43Z</time>
      </trkpt>
      <trkpt lat="48.57204" lon="-2.20007">
        <ele>-1000</ele>
        <time>2007-05-30T14:08:43Z</time>
      </trkpt>
      <trkpt lat="48.57235" lon="-2.19965">
        <ele>-1000</ele>
        <time>2007-05-30T14:08:43Z</time>
      </trkpt>
      <trkpt lat="48.57381" lon="-2.19543">
        <ele>-1000</ele>
        <time>2007-05-30T14:08:43Z</time>
      </trkpt>
      <trkpt lat="48.57409" lon="-2.1944">
        <ele>-1000</ele>
        <time>2007-05-30T14:08:43Z</time>
      </trkpt>
      <trkpt lat="48.57456" lon="-2.1933">
        <ele>-1000</ele>
        <time>2007-05-30T14:08:43Z</time>
      </trkpt>
      <trkpt lat="48.57517" lon="-2.19084">
        <ele>-1000</ele>
        <time>2007-05-30T14:08:43Z</time>
      </trkpt>
      <trkpt lat="48.57472" lon="-2.19063">
        <ele>-1000</ele>
        <time>2007-05-30T14:08:43Z</time>
      </trkpt>
      <trkpt lat="48.57431" lon="-2.19033">
        <ele>-1000</ele>
        <time>2007-05-30T14:08:43Z</time>
      </trkpt>
      <trkpt lat="48.57335" lon="-2.19006">
        <ele>-1000</ele>
        <time>2007-05-30T14:08:43Z</time>
      </trkpt>
      <trkpt lat="48.57289" lon="-2.18978">
        <ele>-1000</ele>
        <time>2007-05-30T14:08:43Z</time>
      </trkpt>
      <trkpt lat="48.57236" lon="-2.18917">
        <ele>-1000</ele>
        <time>2007-05-30T14:08:43Z</time>
      </trkpt>
      <trkpt lat="48.57208" lon="-2.18866">
        <ele>-1000</ele>
        <time>2007-05-30T14:08:43Z</time>
      </trkpt>
      <trkpt lat="48.57114" lon="-2.18797">
        <ele>-1000</ele>
        <time>2007-05-30T14:08:43Z</time>
      </trkpt>
      <trkpt lat="48.57127" lon="-2.18532">
        <ele>-1000</ele>
        <time>2007-05-30T14:08:43Z</time>
      </trkpt>
      <trkpt lat="48.5715" lon="-2.18318">
        <ele>-1000</ele>
        <time>2007-05-30T14:08:43Z</time>
      </trkpt>
      <trkpt lat="48.57166" lon="-2.18244">
        <ele>-1000</ele>
        <time>2007-05-30T14:08:43Z</time>
      </trkpt>
      <trkpt lat="48.57142" lon="-2.18221">
        <ele>-1000</ele>
        <time>2007-05-30T14:08:43Z</time>
      </trkpt>
      <trkpt lat="48.57112" lon="-2.18219">
        <ele>-1000</ele>
        <time>2007-05-30T14:08:43Z</time>
      </trkpt>
      <trkpt lat="48.57121" lon="-2.1811">
        <ele>-1000</ele>
        <time>2007-05-30T14:08:43Z</time>
      </trkpt>
      <trkpt lat="48.57164" lon="-2.17999">
        <ele>-1000</ele>
        <time>2007-05-30T14:08:43Z</time>
      </trkpt>
      <trkpt lat="48.57224" lon="-2.17774">
        <ele>-1000</ele>
        <time>2007-05-30T14:08:43Z</time>
      </trkpt>
      <trkpt lat="48.57275" lon="-2.17636">
        <ele>-1000</ele>
        <time>2007-05-30T14:08:43Z</time>
      </trkpt>
      <trkpt lat="48.57352" lon="-2.17534">
        <ele>-1000</ele>
        <time>2007-05-30T14:08:43Z</time>
      </trkpt>
      <trkpt lat="48.57371" lon="-2.17495">
        <ele>-1000</ele>
        <time>2007-05-30T14:08:43Z</time>
      </trkpt>
      <trkpt lat="48.5743" lon="-2.17444">
        <ele>-1000</ele>
        <time>2007-05-30T14:08:43Z</time>
      </trkpt>
      <trkpt lat="48.57392" lon="-2.17167">
        <ele>-1000</ele>
        <time>2007-05-30T14:08:43Z</time>
      </trkpt>
      <trkpt lat="48.57608" lon="-2.16942">
        <ele>-1000</ele>
        <time>2007-05-30T14:08:43Z</time>
      </trkpt>
      <trkpt lat="48.57609" lon="-2.1686">
        <ele>-1000</ele>
        <time>2007-05-30T14:08:43Z</time>
      </trkpt>
      <trkpt lat="48.57603" lon="-2.16805">
        <ele>-1000</ele>
        <time>2007-05-30T14:08:43Z</time>
      </trkpt>
      <trkpt lat="48.57643" lon="-2.1675">
        <ele>-1000</ele>
        <time>2007-05-30T14:08:43Z</time>
      </trkpt>
      <trkpt lat="48.57673" lon="-2.16758">
        <ele>-1000</ele>
        <time>2007-05-30T14:08:43Z</time>
      </trkpt>
      <trkpt lat="48.57704" lon="-2.16733">
        <ele>-1000</ele>
        <time>2007-05-30T14:08:43Z</time>
      </trkpt>
      <trkpt lat="48.57703" lon="-2.16551">
        <ele>-1000</ele>
        <time>2007-05-30T14:08:43Z</time>
      </trkpt>
      <trkpt lat="48.57737" lon="-2.16514">
        <ele>-1000</ele>
        <time>2007-05-30T14:08:43Z</time>
      </trkpt>
      <trkpt lat="48.57766" lon="-2.16517">
        <ele>-1000</ele>
        <time>2007-05-30T14:08:43Z</time>
      </trkpt>
      <trkpt lat="48.57888" lon="-2.16431">
        <ele>-1000</ele>
        <time>2007-05-30T14:08:43Z</time>
      </trkpt>
      <trkpt lat="48.57961" lon="-2.16431">
        <ele>-1000</ele>
        <time>2007-05-30T14:08:43Z</time>
      </trkpt>
      <trkpt lat="48.58161" lon="-2.16628">
        <ele>-1000</ele>
        <time>2007-05-30T14:08:43Z</time>
      </trkpt>
      <trkpt lat="48.58199" lon="-2.1661">
        <ele>-1000</ele>
        <time>2007-05-30T14:08:43Z</time>
      </trkpt>
      <trkpt lat="48.58271" lon="-2.16388">
        <ele>-1000</ele>
        <time>2007-05-30T14:08:43Z</time>
      </trkpt>
      <trkpt lat="48.58353" lon="-2.16287">
        <ele>-1000</ele>
        <time>2007-05-30T14:08:43Z</time>
      </trkpt>
      <trkpt lat="48.58584" lon="-2.16131">
        <ele>-1000</ele>
        <time>2007-05-30T14:08:43Z</time>
      </trkpt>
      <trkpt lat="48.58666" lon="-2.16016">
        <ele>-1000</ele>
        <time>2007-05-30T14:08:43Z</time>
      </trkpt>
      <trkpt lat="48.58723" lon="-2.15875">
        <ele>-1000</ele>
        <time>2007-05-30T14:08:43Z</time>
      </trkpt>
      <trkpt lat="48.58701" lon="-2.15717">
        <ele>-1000</ele>
        <time>2007-05-30T14:08:43Z</time>
      </trkpt>
      <trkpt lat="48.58705" lon="-2.15638">
        <ele>-1000</ele>
        <time>2007-05-30T14:08:43Z</time>
      </trkpt>
      <trkpt lat="48.58725" lon="-2.15594">
        <ele>-1000</ele>
        <time>2007-05-30T14:08:43Z</time>
      </trkpt>
      <trkpt lat="48.58727" lon="-2.1548">
        <ele>-1000</ele>
        <time>2007-05-30T14:08:43Z</time>
      </trkpt>
      <trkpt lat="48.58721" lon="-2.1539">
        <ele>-1000</ele>
        <time>2007-05-30T14:08:43Z</time>
      </trkpt>
      <trkpt lat="48.58701" lon="-2.15367">
        <ele>-1000</ele>
        <time>2007-05-30T14:08:43Z</time>
      </trkpt>
      <trkpt lat="48.58659" lon="-2.1537">
        <ele>-1000</ele>
        <time>2007-05-30T14:08:43Z</time>
      </trkpt>
      <trkpt lat="48.58604" lon="-2.15356">
        <ele>-1000</ele>
        <time>2007-05-30T14:08:43Z</time>
      </trkpt>
      <trkpt lat="48.58553" lon="-2.15283">
        <ele>-1000</ele>
        <time>2007-05-30T14:08:43Z</time>
      </trkpt>
      <trkpt lat="48.58558" lon="-2.15155">
        <ele>-1000</ele>
        <time>2007-05-30T14:08:43Z</time>
      </trkpt>
      <trkpt lat="48.58591" lon="-2.15057">
        <ele>-1000</ele>
        <time>2007-05-30T14:08:43Z</time>
      </trkpt>
      <trkpt lat="48.58598" lon="-2.14953">
        <ele>-1000</ele>
        <time>2007-05-30T14:08:43Z</time>
      </trkpt>
      <trkpt lat="48.58667" lon="-2.14855">
        <ele>-1000</ele>
        <time>2007-05-30T14:08:43Z</time>
      </trkpt>
      <trkpt lat="48.58696" lon="-2.14733">
        <ele>-1000</ele>
        <time>2007-05-30T14:08:43Z</time>
      </trkpt>
      <trkpt lat="48.58698" lon="-2.14639">
        <ele>-1000</ele>
        <time>2007-05-30T14:08:43Z</time>
      </trkpt>
      <trkpt lat="48.58666" lon="-2.14586">
        <ele>-1000</ele>
        <time>2007-05-30T14:08:43Z</time>
      </trkpt>
      <trkpt lat="48.58597" lon="-2.14573">
        <ele>-1000</ele>
        <time>2007-05-30T14:08:43Z</time>
      </trkpt>
      <trkpt lat="48.58609" lon="-2.14501">
        <ele>-1000</ele>
        <time>2007-05-30T14:08:43Z</time>
      </trkpt>
      <trkpt lat="48.58659" lon="-2.14409">
        <ele>-1000</ele>
        <time>2007-05-30T14:08:43Z</time>
      </trkpt>
      <trkpt lat="48.58721" lon="-2.1431">
        <ele>-1000</ele>
        <time>2007-05-30T14:08:43Z</time>
      </trkpt>
      <trkpt lat="48.58748" lon="-2.14228">
        <ele>-1000</ele>
        <time>2007-05-30T14:08:43Z</time>
      </trkpt>
      <trkpt lat="48.58822" lon="-2.14359">
        <ele>-1000</ele>
        <time>2007-05-30T14:08:43Z</time>
      </trkpt>
      <trkpt lat="48.58865" lon="-2.14386">
        <ele>-1000</ele>
        <time>2007-05-30T14:08:43Z</time>
      </trkpt>
      <trkpt lat="48.58868" lon="-2.14355">
        <ele>-1000</ele>
        <time>2007-05-30T14:08:43Z</time>
      </trkpt>
      <trkpt lat="48.58924" lon="-2.14235">
        <ele>-1000</ele>
        <time>2007-05-30T14:08:43Z</time>
      </trkpt>
      <trkpt lat="48.58949" lon="-2.14101">
        <ele>-1000</ele>
        <time>2007-05-30T14:08:43Z</time>
      </trkpt>
      <trkpt lat="48.58911" lon="-2.14013">
        <ele>-1000</ele>
        <time>2007-05-30T14:08:43Z</time>
      </trkpt>
      <trkpt lat="48.58863" lon="-2.13513">
        <ele>-1000</ele>
        <time>2007-05-30T14:08:43Z</time>
      </trkpt>
      <trkpt lat="48.58844" lon="-2.13487">
        <ele>-1000</ele>
        <time>2007-05-30T14:08:43Z</time>
      </trkpt>
      <trkpt lat="48.58805" lon="-2.13477">
        <ele>-1000</ele>
        <time>2007-05-30T14:08:43Z</time>
      </trkpt>
      <trkpt lat="48.5869" lon="-2.13394">
        <ele>-1000</ele>
        <time>2007-05-30T14:08:43Z</time>
      </trkpt>
      <trkpt lat="48.58566" lon="-2.13257">
        <ele>-1000</ele>
        <time>2007-05-30T14:08:43Z</time>
      </trkpt>
      <trkpt lat="48.58437" lon="-2.13144">
        <ele>-1000</ele>
        <time>2007-05-30T14:08:43Z</time>
      </trkpt>
      <trkpt lat="48.58178" lon="-2.13152">
        <ele>-1000</ele>
        <time>2007-05-30T14:08:43Z</time>
      </trkpt>
      <trkpt lat="48.58088" lon="-2.13191">
        <ele>-1000</ele>
        <time>2007-05-30T14:08:43Z</time>
      </trkpt>
      <trkpt lat="48.58054" lon="-2.1319">
        <ele>-1000</ele>
        <time>2007-05-30T14:08:43Z</time>
      </trkpt>
      <trkpt lat="48.57964" lon="-2.13097">
        <ele>-1000</ele>
        <time>2007-05-30T14:08:43Z</time>
      </trkpt>
      <trkpt lat="48.57887" lon="-2.13032">
        <ele>-1000</ele>
        <time>2007-05-30T14:08:43Z</time>
      </trkpt>
      <trkpt lat="48.57853" lon="-2.12988">
        <ele>-1000</ele>
        <time>2007-05-30T14:08:43Z</time>
      </trkpt>
      <trkpt lat="48.57695" lon="-2.12672">
        <ele>-1000</ele>
        <time>2007-05-30T14:08:43Z</time>
      </trkpt>
      <trkpt lat="48.57692" lon="-2.12626">
        <ele>-1000</ele>
        <time>2007-05-30T14:08:43Z</time>
      </trkpt>
      <trkpt lat="48.57706" lon="-2.12582">
        <ele>-1000</ele>
        <time>2007-05-30T14:08:43Z</time>
      </trkpt>
      <trkpt lat="48.57839" lon="-2.12621">
        <ele>-1000</ele>
        <time>2007-05-30T14:08:43Z</time>
      </trkpt>
      <trkpt lat="48.57893" lon="-2.12684">
        <ele>-1000</ele>
        <time>2007-05-30T14:08:43Z</time>
      </trkpt>
      <trkpt lat="48.58108" lon="-2.12418">
        <ele>-1000</ele>
        <time>2007-05-30T14:08:43Z</time>
      </trkpt>
      <trkpt lat="48.58068" lon="-2.12188">
        <ele>-1000</ele>
        <time>2007-05-30T14:08:43Z</time>
      </trkpt>
      <trkpt lat="48.58041" lon="-2.12083">
        <ele>-1000</ele>
        <time>2007-05-30T14:08:43Z</time>
      </trkpt>
      <trkpt lat="48.57974" lon="-2.11935">
        <ele>-1000</ele>
        <time>2007-05-30T14:08:43Z</time>
      </trkpt>
      <trkpt lat="48.57999" lon="-2.11869">
        <ele>-1000</ele>
        <time>2007-05-30T14:08:43Z</time>
      </trkpt>
      <trkpt lat="48.58015" lon="-2.1177">
        <ele>-1000</ele>
        <time>2007-05-30T14:08:43Z</time>
      </trkpt>
      <trkpt lat="48.58104" lon="-2.11738">
        <ele>-1000</ele>
        <time>2007-05-30T14:08:43Z</time>
      </trkpt>
      <trkpt lat="48.58194" lon="-2.11685">
        <ele>-1000</ele>
        <time>2007-05-30T14:08:43Z</time>
      </trkpt>
      <trkpt lat="48.58281" lon="-2.11591">
        <ele>-1000</ele>
        <time>2007-05-30T14:08:43Z</time>
      </trkpt>
      <trkpt lat="48.58294" lon="-2.11532">
        <ele>-1000</ele>
        <time>2007-05-30T14:08:43Z</time>
      </trkpt>
      <trkpt lat="48.58176" lon="-2.11442">
        <ele>-1000</ele>
        <time>2007-05-30T14:08:43Z</time>
      </trkpt>
      <trkpt lat="48.58267" lon="-2.11421">
        <ele>-1000</ele>
        <time>2007-05-30T14:08:43Z</time>
      </trkpt>
      <trkpt lat="48.58319" lon="-2.11383">
        <ele>-1000</ele>
        <time>2007-05-30T14:08:43Z</time>
      </trkpt>
      <trkpt lat="48.58351" lon="-2.11286">
        <ele>-1000</ele>
        <time>2007-05-30T14:08:43Z</time>
      </trkpt>
      <trkpt lat="48.58361" lon="-2.1112">
        <ele>-1000</ele>
        <time>2007-05-30T14:08:43Z</time>
      </trkpt>
      <trkpt lat="48.58294" lon="-2.11148">
        <ele>-1000</ele>
        <time>2007-05-30T14:08:43Z</time>
      </trkpt>
      <trkpt lat="48.58177" lon="-2.11104">
        <ele>-1000</ele>
        <time>2007-05-30T14:08:43Z</time>
      </trkpt>
      <trkpt lat="48.58089" lon="-2.10996">
        <ele>-1000</ele>
        <time>2007-05-30T14:08:43Z</time>
      </trkpt>
      <trkpt lat="48.58082" lon="-2.10917">
        <ele>-1000</ele>
        <time>2007-05-30T14:08:43Z</time>
      </trkpt>
      <trkpt lat="48.57969" lon="-2.10885">
        <ele>-1000</ele>
        <time>2007-05-30T14:08:43Z</time>
      </trkpt>
      <trkpt lat="48.57977" lon="-2.10805">
        <ele>-1000</ele>
        <time>2007-05-30T14:08:43Z</time>
      </trkpt>
      <trkpt lat="48.57961" lon="-2.10682">
        <ele>-1000</ele>
        <time>2007-05-30T14:08:43Z</time>
      </trkpt>
      <trkpt lat="48.5784" lon="-2.10611">
        <ele>-1000</ele>
        <time>2007-05-30T14:08:43Z</time>
      </trkpt>
      <trkpt lat="48.57869" lon="-2.10543">
        <ele>-1000</ele>
        <time>2007-05-30T14:08:43Z</time>
      </trkpt>
      <trkpt lat="48.57867" lon="-2.10499">
        <ele>-1000</ele>
        <time>2007-05-30T14:08:43Z</time>
      </trkpt>
      <trkpt lat="48.57843" lon="-2.10461">
        <ele>-1000</ele>
        <time>2007-05-30T14:08:43Z</time>
      </trkpt>
      <trkpt lat="48.57811" lon="-2.1043">
        <ele>-1000</ele>
        <time>2007-05-30T14:08:43Z</time>
      </trkpt>
      <trkpt lat="48.57804" lon="-2.10392">
        <ele>-1000</ele>
        <time>2007-05-30T14:08:43Z</time>
      </trkpt>
      <trkpt lat="48.57781" lon="-2.10397">
        <ele>-1000</ele>
        <time>2007-05-30T14:08:43Z</time>
      </trkpt>
      <trkpt lat="48.57592" lon="-2.10316">
        <ele>-1000</ele>
        <time>2007-05-30T14:08:43Z</time>
      </trkpt>
      <trkpt lat="48.57562" lon="-2.10323">
        <ele>-1000</ele>
        <time>2007-05-30T14:08:43Z</time>
      </trkpt>
      <trkpt lat="48.57509" lon="-2.10372">
        <ele>-1000</ele>
        <time>2007-05-30T14:08:43Z</time>
      </trkpt>
      <trkpt lat="48.57495" lon="-2.10337">
        <ele>-1000</ele>
        <time>2007-05-30T14:08:43Z</time>
      </trkpt>
      <trkpt lat="48.57531" lon="-2.10247">
        <ele>-1000</ele>
        <time>2007-05-30T14:08:43Z</time>
      </trkpt>
      <trkpt lat="48.5753" lon="-2.10217">
        <ele>-1000</ele>
        <time>2007-05-30T14:08:43Z</time>
      </trkpt>
      <trkpt lat="48.57518" lon="-2.10117">
        <ele>-1000</ele>
        <time>2007-05-30T14:08:43Z</time>
      </trkpt>
      <trkpt lat="48.57538" lon="-2.10026">
        <ele>-1000</ele>
        <time>2007-05-30T14:08:43Z</time>
      </trkpt>
      <trkpt lat="48.57597" lon="-2.09926">
        <ele>-1000</ele>
        <time>2007-05-30T14:08:43Z</time>
      </trkpt>
      <trkpt lat="48.57602" lon="-2.09845">
        <ele>-1000</ele>
        <time>2007-05-30T14:08:43Z</time>
      </trkpt>
      <trkpt lat="48.57522" lon="-2.09773">
        <ele>-1000</ele>
        <time>2007-05-30T14:08:43Z</time>
      </trkpt>
      <trkpt lat="48.57423" lon="-2.09719">
        <ele>-1000</ele>
        <time>2007-05-30T14:08:43Z</time>
      </trkpt>
      <trkpt lat="48.57336" lon="-2.09594">
        <ele>-1000</ele>
        <time>2007-05-30T14:08:43Z</time>
      </trkpt>
      <trkpt lat="48.57298" lon="-2.09565">
        <ele>-1000</ele>
        <time>2007-05-30T14:08:43Z</time>
      </trkpt>
      <trkpt lat="48.57256" lon="-2.09693">
        <ele>-1000</ele>
        <time>2007-05-30T14:08:43Z</time>
      </trkpt>
      <trkpt lat="48.57225" lon="-2.09696">
        <ele>-1000</ele>
        <time>2007-05-30T14:08:43Z</time>
      </trkpt>
      <trkpt lat="48.57139" lon="-2.09732">
        <ele>-1000</ele>
        <time>2007-05-30T14:08:43Z</time>
      </trkpt>
      <trkpt lat="48.57123" lon="-2.09941">
        <ele>-1000</ele>
        <time>2007-05-30T14:08:43Z</time>
      </trkpt>
      <trkpt lat="48.5707" lon="-2.10057">
        <ele>-1000</ele>
        <time>2007-05-30T14:08:43Z</time>
      </trkpt>
      <trkpt lat="48.56986" lon="-2.10076">
        <ele>-1000</ele>
        <time>2007-05-30T14:08:43Z</time>
      </trkpt>
      <trkpt lat="48.5694" lon="-2.1003">
        <ele>-1000</ele>
        <time>2007-05-30T14:08:43Z</time>
      </trkpt>
      <trkpt lat="48.57039" lon="-2.09943">
        <ele>-1000</ele>
        <time>2007-05-30T14:08:43Z</time>
      </trkpt>
      <trkpt lat="48.57053" lon="-2.09897">
        <ele>-1000</ele>
        <time>2007-05-30T14:08:43Z</time>
      </trkpt>
      <trkpt lat="48.57042" lon="-2.09709">
        <ele>-1000</ele>
        <time>2007-05-30T14:08:43Z</time>
      </trkpt>
      <trkpt lat="48.57004" lon="-2.09581">
        <ele>-1000</ele>
        <time>2007-05-30T14:08:43Z</time>
      </trkpt>
      <trkpt lat="48.5694" lon="-2.09552">
        <ele>-1000</ele>
        <time>2007-05-30T14:08:43Z</time>
      </trkpt>
      <trkpt lat="48.56967" lon="-2.09481">
        <ele>-1000</ele>
        <time>2007-05-30T14:08:43Z</time>
      </trkpt>
      <trkpt lat="48.56892" lon="-2.09283">
        <ele>-1000</ele>
        <time>2007-05-30T14:08:43Z</time>
      </trkpt>
      <trkpt lat="48.56755" lon="-2.0928">
        <ele>-1000</ele>
        <time>2007-05-30T14:08:43Z</time>
      </trkpt>
      <trkpt lat="48.56572" lon="-2.09363">
        <ele>-1000</ele>
        <time>2007-05-30T14:08:43Z</time>
      </trkpt>
      <trkpt lat="48.56566" lon="-2.09398">
        <ele>-1000</ele>
        <time>2007-05-30T14:08:43Z</time>
      </trkpt>
      <trkpt lat="48.56537" lon="-2.09415">
        <ele>-1000</ele>
        <time>2007-05-30T14:08:43Z</time>
      </trkpt>
      <trkpt lat="48.56526" lon="-2.09441">
        <ele>-1000</ele>
        <time>2007-05-30T14:08:43Z</time>
      </trkpt>
      <trkpt lat="48.56499" lon="-2.09436">
        <ele>-1000</ele>
        <time>2007-05-30T14:08:43Z</time>
      </trkpt>
      <trkpt lat="48.56501" lon="-2.09406">
        <ele>-1000</ele>
        <time>2007-05-30T14:08:43Z</time>
      </trkpt>
      <trkpt lat="48.56515" lon="-2.09383">
        <ele>-1000</ele>
        <time>2007-05-30T14:08:43Z</time>
      </trkpt>
      <trkpt lat="48.56512" lon="-2.09343">
        <ele>-1000</ele>
        <time>2007-05-30T14:08:43Z</time>
      </trkpt>
      <trkpt lat="48.56362" lon="-2.09325">
        <ele>-1000</ele>
        <time>2007-05-30T14:08:43Z</time>
      </trkpt>
      <trkpt lat="48.56355" lon="-2.09264">
        <ele>-1000</ele>
        <time>2007-05-30T14:08:43Z</time>
      </trkpt>
      <trkpt lat="48.56365" lon="-2.09236">
        <ele>-1000</ele>
        <time>2007-05-30T14:08:43Z</time>
      </trkpt>
      <trkpt lat="48.56474" lon="-2.09248">
        <ele>-1000</ele>
        <time>2007-05-30T14:08:43Z</time>
      </trkpt>
      <trkpt lat="48.56513" lon="-2.09228">
        <ele>-1000</ele>
        <time>2007-05-30T14:08:43Z</time>
      </trkpt>
      <trkpt lat="48.56545" lon="-2.09181">
        <ele>-1000</ele>
        <time>2007-05-30T14:08:43Z</time>
      </trkpt>
      <trkpt lat="48.56615" lon="-2.0917">
        <ele>-1000</ele>
        <time>2007-05-30T14:08:43Z</time>
      </trkpt>
      <trkpt lat="48.56644" lon="-2.09153">
        <ele>-1000</ele>
        <time>2007-05-30T14:08:43Z</time>
      </trkpt>
      <trkpt lat="48.56696" lon="-2.09157">
        <ele>-1000</ele>
        <time>2007-05-30T14:08:43Z</time>
      </trkpt>
      <trkpt lat="48.56776" lon="-2.09123">
        <ele>-1000</ele>
        <time>2007-05-30T14:08:43Z</time>
      </trkpt>
      <trkpt lat="48.5687" lon="-2.09124">
        <ele>-1000</ele>
        <time>2007-05-30T14:08:43Z</time>
      </trkpt>
      <trkpt lat="48.5694" lon="-2.08957">
        <ele>-1000</ele>
        <time>2007-05-30T14:08:43Z</time>
      </trkpt>
      <trkpt lat="48.56969" lon="-2.08922">
        <ele>-1000</ele>
        <time>2007-05-30T14:08:43Z</time>
      </trkpt>
      <trkpt lat="48.56971" lon="-2.08874">
        <ele>-1000</ele>
        <time>2007-05-30T14:08:43Z</time>
      </trkpt>
      <trkpt lat="48.57013" lon="-2.08832">
        <ele>-1000</ele>
        <time>2007-05-30T14:08:43Z</time>
      </trkpt>
      <trkpt lat="48.57029" lon="-2.08803">
        <ele>-1000</ele>
        <time>2007-05-30T14:08:43Z</time>
      </trkpt>
      <trkpt lat="48.57025" lon="-2.08741">
        <ele>-1000</ele>
        <time>2007-05-30T14:08:43Z</time>
      </trkpt>
      <trkpt lat="48.56983" lon="-2.08743">
        <ele>-1000</ele>
        <time>2007-05-30T14:08:43Z</time>
      </trkpt>
      <trkpt lat="48.56976" lon="-2.08611">
        <ele>-1000</ele>
        <time>2007-05-30T14:08:43Z</time>
      </trkpt>
      <trkpt lat="48.56899" lon="-2.08454">
        <ele>-1000</ele>
        <time>2007-05-30T14:08:43Z</time>
      </trkpt>
      <trkpt lat="48.56776" lon="-2.08352">
        <ele>-1000</ele>
        <time>2007-05-30T14:08:43Z</time>
      </trkpt>
      <trkpt lat="48.56696" lon="-2.08317">
        <ele>-1000</ele>
        <time>2007-05-30T14:08:43Z</time>
      </trkpt>
      <trkpt lat="48.56556" lon="-2.08296">
        <ele>-1000</ele>
        <time>2007-05-30T14:08:43Z</time>
      </trkpt>
      <trkpt lat="48.56509" lon="-2.08257">
        <ele>-1000</ele>
        <time>2007-05-30T14:08:43Z</time>
      </trkpt>
      <trkpt lat="48.56482" lon="-2.08224">
        <ele>-1000</ele>
        <time>2007-05-30T14:08:43Z</time>
      </trkpt>
      <trkpt lat="48.56461" lon="-2.0816">
        <ele>-1000</ele>
        <time>2007-05-30T14:08:43Z</time>
      </trkpt>
      <trkpt lat="48.56439" lon="-2.07998">
        <ele>-1000</ele>
        <time>2007-05-30T14:08:43Z</time>
      </trkpt>
      <trkpt lat="48.56421" lon="-2.07964">
        <ele>-1000</ele>
        <time>2007-05-30T14:08:43Z</time>
      </trkpt>
      <trkpt lat="48.56387" lon="-2.07956">
        <ele>-1000</ele>
        <time>2007-05-30T14:08:43Z</time>
      </trkpt>
      <trkpt lat="48.56351" lon="-2.0796">
        <ele>-1000</ele>
        <time>2007-05-30T14:08:43Z</time>
      </trkpt>
      <trkpt lat="48.5625" lon="-2.08012">
        <ele>-1000</ele>
        <time>2007-05-30T14:08:43Z</time>
      </trkpt>
      <trkpt lat="48.56134" lon="-2.08008">
        <ele>-1000</ele>
        <time>2007-05-30T14:08:43Z</time>
      </trkpt>
      <trkpt lat="48.55973" lon="-2.07949">
        <ele>-1000</ele>
        <time>2007-05-30T14:08:43Z</time>
      </trkpt>
      <trkpt lat="48.55943" lon="-2.07974">
        <ele>-1000</ele>
        <time>2007-05-30T14:08:43Z</time>
      </trkpt>
      <trkpt lat="48.55913" lon="-2.07969">
        <ele>-1000</ele>
        <time>2007-05-30T14:08:43Z</time>
      </trkpt>
      <trkpt lat="48.55857" lon="-2.07748">
        <ele>-1000</ele>
        <time>2007-05-30T14:08:43Z</time>
      </trkpt>
      <trkpt lat="48.55857" lon="-2.07516">
        <ele>-1000</ele>
        <time>2007-05-30T14:08:43Z</time>
      </trkpt>
      <trkpt lat="48.55843" lon="-2.07489">
        <ele>-1000</ele>
        <time>2007-05-30T14:08:43Z</time>
      </trkpt>
      <trkpt lat="48.55791" lon="-2.07484">
        <ele>-1000</ele>
        <time>2007-05-30T14:08:43Z</time>
      </trkpt>
      <trkpt lat="48.55773" lon="-2.075">
        <ele>-1000</ele>
        <time>2007-05-30T14:08:43Z</time>
      </trkpt>
      <trkpt lat="48.55769" lon="-2.07518">
        <ele>-1000</ele>
        <time>2007-05-30T14:08:43Z</time>
      </trkpt>
      <trkpt lat="48.55702" lon="-2.07562">
        <ele>-1000</ele>
        <time>2007-05-30T14:08:43Z</time>
      </trkpt>
      <trkpt lat="48.55676" lon="-2.07561">
        <ele>-1000</ele>
        <time>2007-05-30T14:08:43Z</time>
      </trkpt>
      <trkpt lat="48.55661" lon="-2.07536">
        <ele>-1000</ele>
        <time>2007-05-30T14:08:43Z</time>
      </trkpt>
      <trkpt lat="48.55666" lon="-2.07454">
        <ele>-1000</ele>
        <time>2007-05-30T14:08:43Z</time>
      </trkpt>
      <trkpt lat="48.55632" lon="-2.07454">
        <ele>-1000</ele>
        <time>2007-05-30T14:08:43Z</time>
      </trkpt>
      <trkpt lat="48.5561" lon="-2.0744">
        <ele>-1000</ele>
        <time>2007-05-30T14:08:43Z</time>
      </trkpt>
      <trkpt lat="48.55555" lon="-2.07435">
        <ele>-1000</ele>
        <time>2007-05-30T14:08:43Z</time>
      </trkpt>
      <trkpt lat="48.55503" lon="-2.07461">
        <ele>-1000</ele>
        <time>2007-05-30T14:08:43Z</time>
      </trkpt>
      <trkpt lat="48.55449" lon="-2.07445">
        <ele>-1000</ele>
        <time>2007-05-30T14:08:43Z</time>
      </trkpt>
      <trkpt lat="48.55416" lon="-2.07375">
        <ele>-1000</ele>
        <time>2007-05-30T14:08:43Z</time>
      </trkpt>
      <trkpt lat="48.55415" lon="-2.0729">
        <ele>-1000</ele>
        <time>2007-05-30T14:08:43Z</time>
      </trkpt>
      <trkpt lat="48.55414" lon="-2.07203">
        <ele>-1000</ele>
        <time>2007-05-30T14:08:43Z</time>
      </trkpt>
      <trkpt lat="48.55396" lon="-2.07115">
        <ele>-1000</ele>
        <time>2007-05-30T14:08:43Z</time>
      </trkpt>
      <trkpt lat="48.55324" lon="-2.07174">
        <ele>-1000</ele>
        <time>2007-05-30T14:08:43Z</time>
      </trkpt>
      <trkpt lat="48.5527" lon="-2.07265">
        <ele>-1000</ele>
        <time>2007-05-30T14:08:43Z</time>
      </trkpt>
      <trkpt lat="48.55203" lon="-2.07343">
        <ele>-1000</ele>
        <time>2007-05-30T14:08:43Z</time>
      </trkpt>
      <trkpt lat="48.55146" lon="-2.07371">
        <ele>-1000</ele>
        <time>2007-05-30T14:08:43Z</time>
      </trkpt>
      <trkpt lat="48.55109" lon="-2.07408">
        <ele>-1000</ele>
        <time>2007-05-30T14:08:43Z</time>
      </trkpt>
      <trkpt lat="48.55107" lon="-2.0734">
        <ele>-1000</ele>
        <time>2007-05-30T14:08:43Z</time>
      </trkpt>
      <trkpt lat="48.55048" lon="-2.07143">
        <ele>-1000</ele>
        <time>2007-05-30T14:08:43Z</time>
      </trkpt>
      <trkpt lat="48.55027" lon="-2.06739">
        <ele>-1000</ele>
        <time>2007-05-30T14:08:43Z</time>
      </trkpt>
      <trkpt lat="48.55018" lon="-2.06688">
        <ele>-1000</ele>
        <time>2007-05-30T14:08:43Z</time>
      </trkpt>
      <trkpt lat="48.55018" lon="-2.06587">
        <ele>-1000</ele>
        <time>2007-05-30T14:08:43Z</time>
      </trkpt>
      <trkpt lat="48.54985" lon="-2.06537">
        <ele>-1000</ele>
        <time>2007-05-30T14:08:43Z</time>
      </trkpt>
      <trkpt lat="48.5496" lon="-2.06418">
        <ele>-1000</ele>
        <time>2007-05-30T14:08:43Z</time>
      </trkpt>
      <trkpt lat="48.54962" lon="-2.06357">
        <ele>-1000</ele>
        <time>2007-05-30T14:08:43Z</time>
      </trkpt>
      <trkpt lat="48.54974" lon="-2.06321">
        <ele>-1000</ele>
        <time>2007-05-30T14:08:43Z</time>
      </trkpt>
      <trkpt lat="48.54929" lon="-2.06356">
        <ele>-1000</ele>
        <time>2007-05-30T14:08:43Z</time>
      </trkpt>
      <trkpt lat="48.54879" lon="-2.06359">
        <ele>-1000</ele>
        <time>2007-05-30T14:08:43Z</time>
      </trkpt>
      <trkpt lat="48.54789" lon="-2.06203">
        <ele>-1000</ele>
        <time>2007-05-30T14:08:43Z</time>
      </trkpt>
      <trkpt lat="48.54771" lon="-2.06078">
        <ele>-1000</ele>
        <time>2007-05-30T14:08:43Z</time>
      </trkpt>
      <trkpt lat="48.54774" lon="-2.06017">
        <ele>-1000</ele>
        <time>2007-05-30T14:08:43Z</time>
      </trkpt>
      <trkpt lat="48.54755" lon="-2.06017">
        <ele>-1000</ele>
        <time>2007-05-30T14:08:43Z</time>
      </trkpt>
      <trkpt lat="48.5474" lon="-2.05796">
        <ele>-1000</ele>
        <time>2007-05-30T14:08:43Z</time>
      </trkpt>
      <trkpt lat="48.54692" lon="-2.05793">
        <ele>-1000</ele>
        <time>2007-05-30T14:08:43Z</time>
      </trkpt>
      <trkpt lat="48.54657" lon="-2.05732">
        <ele>-1000</ele>
        <time>2007-05-30T14:08:43Z</time>
      </trkpt>
      <trkpt lat="48.54588" lon="-2.05638">
        <ele>-1000</ele>
        <time>2007-05-30T14:08:43Z</time>
      </trkpt>
      <trkpt lat="48.54506" lon="-2.05605">
        <ele>-1000</ele>
        <time>2007-05-30T14:08:43Z</time>
      </trkpt>
      <trkpt lat="48.54419" lon="-2.0553">
        <ele>-1000</ele>
        <time>2007-05-30T14:08:43Z</time>
      </trkpt>
      <trkpt lat="48.54331" lon="-2.05418">
        <ele>-1000</ele>
        <time>2007-05-30T14:08:43Z</time>
      </trkpt>
      <trkpt lat="48.54245" lon="-2.05372">
        <ele>-1000</ele>
        <time>2007-05-30T14:08:43Z</time>
      </trkpt>
      <trkpt lat="48.54199" lon="-2.053">
        <ele>-1000</ele>
        <time>2007-05-30T14:08:43Z</time>
      </trkpt>
      <trkpt lat="48.53736" lon="-2.05107">
        <ele>-1000</ele>
        <time>2007-05-30T14:08:43Z</time>
      </trkpt>
      <trkpt lat="48.53677" lon="-2.05102">
        <ele>-1000</ele>
        <time>2007-05-30T14:08:43Z</time>
      </trkpt>
      <trkpt lat="48.53631" lon="-2.05088">
        <ele>-1000</ele>
        <time>2007-05-30T14:08:43Z</time>
      </trkpt>
      <trkpt lat="48.53632" lon="-2.05038">
        <ele>-1000</ele>
        <time>2007-05-30T14:08:43Z</time>
      </trkpt>
      <trkpt lat="48.5281" lon="-2.04709">
        <ele>-1000</ele>
        <time>2007-05-30T14:08:43Z</time>
      </trkpt>
      <trkpt lat="48.52812" lon="-2.04675">
        <ele>-1000</ele>
        <time>2007-05-30T14:08:43Z</time>
      </trkpt>
      <trkpt lat="48.52833" lon="-2.0467">
        <ele>-1000</ele>
        <time>2007-05-30T14:08:43Z</time>
      </trkpt>
      <trkpt lat="48.52871" lon="-2.04698">
        <ele>-1000</ele>
        <time>2007-05-30T14:08:43Z</time>
      </trkpt>
      <trkpt lat="48.52894" lon="-2.04682">
        <ele>-1000</ele>
        <time>2007-05-30T14:08:43Z</time>
      </trkpt>
      <trkpt lat="48.52944" lon="-2.04469">
        <ele>-1000</ele>
        <time>2007-05-30T14:08:43Z</time>
      </trkpt>
      <trkpt lat="48.52977" lon="-2.04157">
        <ele>-1000</ele>
        <time>2007-05-30T14:08:43Z</time>
      </trkpt>
      <trkpt lat="48.5268" lon="-2.042">
        <ele>-1000</ele>
        <time>2007-05-30T14:08:43Z</time>
      </trkpt>
      <trkpt lat="48.52612" lon="-2.04232">
        <ele>-1000</ele>
        <time>2007-05-30T14:08:43Z</time>
      </trkpt>
      <trkpt lat="48.52563" lon="-2.04273">
        <ele>-1000</ele>
        <time>2007-05-30T14:08:43Z</time>
      </trkpt>
      <trkpt lat="48.52469" lon="-2.04286">
        <ele>-1000</ele>
        <time>2007-05-30T14:08:43Z</time>
      </trkpt>
      <trkpt lat="48.52201" lon="-2.04464">
        <ele>-1000</ele>
        <time>2007-05-30T14:08:43Z</time>
      </trkpt>
      <trkpt lat="48.52089" lon="-2.04491">
        <ele>-1000</ele>
        <time>2007-05-30T14:08:43Z</time>
      </trkpt>
      <trkpt lat="48.52057" lon="-2.04468">
        <ele>-1000</ele>
        <time>2007-05-30T14:08:43Z</time>
      </trkpt>
      <trkpt lat="48.52013" lon="-2.04331">
        <ele>-1000</ele>
        <time>2007-05-30T14:08:43Z</time>
      </trkpt>
      <trkpt lat="48.5197" lon="-2.04246">
        <ele>-1000</ele>
        <time>2007-05-30T14:08:43Z</time>
      </trkpt>
      <trkpt lat="48.51931" lon="-2.04074">
        <ele>-1000</ele>
        <time>2007-05-30T14:08:43Z</time>
      </trkpt>
      <trkpt lat="48.51796" lon="-2.03934">
        <ele>-1000</ele>
        <time>2007-05-30T14:08:43Z</time>
      </trkpt>
      <trkpt lat="48.51744" lon="-2.03842">
        <ele>-1000</ele>
        <time>2007-05-30T14:08:43Z</time>
      </trkpt>
      <trkpt lat="48.51741" lon="-2.03808">
        <ele>-1000</ele>
        <time>2007-05-30T14:08:43Z</time>
      </trkpt>
      <trkpt lat="48.51725" lon="-2.03765">
        <ele>-1000</ele>
        <time>2007-05-30T14:08:43Z</time>
      </trkpt>
      <trkpt lat="48.51937" lon="-2.03639">
        <ele>-1000</ele>
        <time>2007-05-30T14:08:43Z</time>
      </trkpt>
      <trkpt lat="48.52243" lon="-2.03611">
        <ele>-1000</ele>
        <time>2007-05-30T14:08:43Z</time>
      </trkpt>
      <trkpt lat="48.52312" lon="-2.0358">
        <ele>-1000</ele>
        <time>2007-05-30T14:08:43Z</time>
      </trkpt>
      <trkpt lat="48.52159" lon="-2.03469">
        <ele>-1000</ele>
        <time>2007-05-30T14:08:43Z</time>
      </trkpt>
      <trkpt lat="48.51959" lon="-2.03066">
        <ele>-1000</ele>
        <time>2007-05-30T14:08:43Z</time>
      </trkpt>
      <trkpt lat="48.51933" lon="-2.02934">
        <ele>-1000</ele>
        <time>2007-05-30T14:08:43Z</time>
      </trkpt>
      <trkpt lat="48.51942" lon="-2.02799">
        <ele>-1000</ele>
        <time>2007-05-30T14:08:43Z</time>
      </trkpt>
      <trkpt lat="48.51963" lon="-2.02765">
        <ele>-1000</ele>
        <time>2007-05-30T14:08:43Z</time>
      </trkpt>
      <trkpt lat="48.51947" lon="-2.02714">
        <ele>-1000</ele>
        <time>2007-05-30T14:08:43Z</time>
      </trkpt>
      <trkpt lat="48.51912" lon="-2.0268">
        <ele>-1000</ele>
        <time>2007-05-30T14:08:43Z</time>
      </trkpt>
      <trkpt lat="48.51889" lon="-2.0263">
        <ele>-1000</ele>
        <time>2007-05-30T14:08:43Z</time>
      </trkpt>
      <trkpt lat="48.51894" lon="-2.02565">
        <ele>-1000</ele>
        <time>2007-05-30T14:08:43Z</time>
      </trkpt>
      <trkpt lat="48.51648" lon="-2.02216">
        <ele>-1000</ele>
        <time>2007-05-30T14:08:43Z</time>
      </trkpt>
      <trkpt lat="48.51616" lon="-2.02258">
        <ele>-1000</ele>
        <time>2007-05-30T14:08:43Z</time>
      </trkpt>
      <trkpt lat="48.51542" lon="-2.02278">
        <ele>-1000</ele>
        <time>2007-05-30T14:08:43Z</time>
      </trkpt>
      <trkpt lat="48.51335" lon="-2.01866">
        <ele>-1000</ele>
        <time>2007-05-30T14:08:43Z</time>
      </trkpt>
      <trkpt lat="48.51266" lon="-2.01852">
        <ele>-1000</ele>
        <time>2007-05-30T14:08:43Z</time>
      </trkpt>
      <trkpt lat="48.51265" lon="-2.01793">
        <ele>-1000</ele>
        <time>2007-05-30T14:08:43Z</time>
      </trkpt>
      <trkpt lat="48.51294" lon="-2.01665">
        <ele>-1000</ele>
        <time>2007-05-30T14:08:43Z</time>
      </trkpt>
      <trkpt lat="48.50858" lon="-2.01664">
        <ele>-1000</ele>
        <time>2007-05-30T14:08:43Z</time>
      </trkpt>
      <trkpt lat="48.50841" lon="-2.01692">
        <ele>-1000</ele>
        <time>2007-05-30T14:08:43Z</time>
      </trkpt>
      <trkpt lat="48.50674" lon="-2.01669">
        <ele>-1000</ele>
        <time>2007-05-30T14:08:43Z</time>
      </trkpt>
      <trkpt lat="48.50662" lon="-2.01639">
        <ele>-1000</ele>
        <time>2007-05-30T14:08:43Z</time>
      </trkpt>
      <trkpt lat="48.50494" lon="-2.01617">
        <ele>-1000</ele>
        <time>2007-05-30T14:08:43Z</time>
      </trkpt>
      <trkpt lat="48.50392" lon="-2.01557">
        <ele>-1000</ele>
        <time>2007-05-30T14:08:43Z</time>
      </trkpt>
      <trkpt lat="48.50226" lon="-2.01539">
        <ele>-1000</ele>
        <time>2007-05-30T14:08:43Z</time>
      </trkpt>
      <trkpt lat="48.50201" lon="-2.0157">
        <ele>-1000</ele>
        <time>2007-05-30T14:08:43Z</time>
      </trkpt>
      <trkpt lat="48.50191" lon="-2.00904">
        <ele>-1000</ele>
        <time>2007-05-30T14:08:43Z</time>
      </trkpt>
      <trkpt lat="48.50083" lon="-2.00671">
        <ele>-1000</ele>
        <time>2007-05-30T14:08:43Z</time>
      </trkpt>
      <trkpt lat="48.50108" lon="-2.00623">
        <ele>-1000</ele>
        <time>2007-05-30T14:08:43Z</time>
      </trkpt>
      <trkpt lat="48.50065" lon="-2.00618">
        <ele>-1000</ele>
        <time>2007-05-30T14:08:43Z</time>
      </trkpt>
      <trkpt lat="48.50021" lon="-2.00635">
        <ele>-1000</ele>
        <time>2007-05-30T14:08:43Z</time>
      </trkpt>
      <trkpt lat="48.4996" lon="-2.0063">
        <ele>-1000</ele>
        <time>2007-05-30T14:08:43Z</time>
      </trkpt>
      <trkpt lat="48.49936" lon="-2.00607">
        <ele>-1000</ele>
        <time>2007-05-30T14:08:43Z</time>
      </trkpt>
      <trkpt lat="48.49952" lon="-2.00594">
        <ele>-1000</ele>
        <time>2007-05-30T14:08:43Z</time>
      </trkpt>
      <trkpt lat="48.49919" lon="-2.00351">
        <ele>-1000</ele>
        <time>2007-05-30T14:08:43Z</time>
      </trkpt>
      <trkpt lat="48.4988" lon="-2.00181">
        <ele>-1000</ele>
        <time>2007-05-30T14:08:43Z</time>
      </trkpt>
      <trkpt lat="48.49852" lon="-2.00091">
        <ele>-1000</ele>
        <time>2007-05-30T14:08:43Z</time>
      </trkpt>
    </trkseg>
  </trk>
</gpx>